Preview of NWS' New Version of Forecast
This preview is not operational and should not be used for support decisions.

Regional Weather Roundup (RWR)

Issued by National Weather Service (NWS)

                            
000
ASCA42 TJSJ 180010
RWRPR 
PUERTO RICO/U.S. VIRGIN ISLANDS HOURLY WEATHER ROUNDUP
NATIONAL WEATHER SERVICE SAN JUAN PR
800 PM AST FRI MAY 17 2019

PRZ001>002-007>008-010-180100-
PUERTO RICO
  
CITY           SKY/WX    TMP DP  RH WIND       PRES   REMARKS
SAN JUAN LMM   PTCLDY    81  73  78 E13       29.98R                  
AGUADILLA      CLOUDY    79  73  83 E13G20    29.98R                  
CEIBA          CLEAR     82  73  74 E7        30.00R                  
$$

VIZ001>002-180100-
U.S. VIRGIN ISLANDS
  
CITY           SKY/WX    TMP DP  RH WIND       PRES   REMARKS
CHARLOTTE AMA  CLEAR     82  72  69 E9        29.98R                  
CHRISTIANSTED  CLEAR     79  72  78 E9        29.99R                  
$$

HOURLY WEATHER ROUNDUP FOR THE NEWS MEDIA
  
CITY           SKY/WX    TMP DP  RH WIND       PRES   REMARKS
ORLANDO        FAIR      80  56  43 SE13      30.02R                  
NEW YORK       MOCLDY    65  59  81 S6        29.75R                  
NEWARK         MOCLDY    77  57  50 SW12      29.73R                  
CHICAGO        CLOUDY    46  36  68 NE13      29.95S                  
HARTFORD       FAIR      56  56 100 SW6       29.73S                  
BOSTON         MOCLDY    59  57  93 CALM      29.69F                  
DALLAS         PTSUNNY   86  66  51 S15G22    29.73F                  
PHILADELPHIA   LGT RAIN  71  65  81 S3        29.77S                  
LOS ANGELES    MOSUNNY   67  47  48 W25       29.97F                  
WASHINGTON DC  MOCLDY    77  60  55 W7        29.83R